Orbital Elements at Epoch 2459200.5 (2020-Dec-17.0) TDB
Reference: JPL 28 (heliocentric ecliptic J2000)
Element | Value | Uncertainty (1-sigma) | Units |
e | .1280288877104262 | 2.0497e-08 | |
a | 2.247560066997722 | 6.8031e-09 | au |
q | 1.959807451557632 | 4.6479e-08 | au |
i | 5.421169140630917 | 9.61e-07 | deg |
node | 338.6244857090958 | 5.936e-06 | deg |
peri | 256.072577263815 | 8.1872e-06 | deg |
M | 351.16834697448 | 6.922e-06 | deg |
tp | 2459230.692903943473 (2021-Jan-16.19290394) | 2.375e-05 | TDB |
period | 1230.737370256955 3.37 | 5.588e-06 1.53e-08 | d yr |
n | .2925075720458856 | 1.3281e-09 | deg/d |
Q | 2.53531268243781 | 7.6741e-09 | au |
|
| | Orbit Determination Parameters
Additional Information
|